Date String (YYYY-MM-DD hh:mm:ss) UTC,Instrument flags,absolute air pressure of the measurement (hPa),sample flow rate (lpm),inlet stack bypass flow (lpm),air temperature of the measurement (°C),ambient temperature measured by the external sensor (°C),aerosol sample conditioner tube jacket temperature (°C),OPC LED temperature (°C),internal box temperature (°C),relative humidity of the measurement (%),span deviation,mass concentration of particles derived from Lorenz-Mie calculation of OPC scattering (μg/m³),mass concentration of particles derived from Lorenz-Mie calculation of OPC scattering (μg/m³),mass concentration of particles derived from Lorenz-Mie calculation of OPC scattering (μg/m³)
DateTimeUTC,F1_M11,P_M11,Q1_M11,Q2_M11,T1_M11,T2_M11,T3_M11,T4_M11,T5_M11,U1_M11,ZSPAN_M11,X0_M11,X2_M11,X1_M11
2023-09-01 06:00:00,SystemResetWarning,0828.9,5.00,000.00,028.0,026.2,000.0,036.4,029.6,20.4,0000.0,0010.75,0003.97,0003.27
2023-09-01 06:01:00,SystemResetWarning,0829.0,4.99,000.00,028.0,026.5,000.0,036.4,029.7,20.1,0000.0,0010.15,0003.98,0003.27
2023-09-01 06:02:00,SystemResetWarning,0829.0,5.00,000.00,028.1,026.7,000.0,036.4,029.7,19.9,0000.0,0010.24,0003.97,0003.25
2023-09-01 06:03:00,SystemResetWarning,0829.0,5.00,000.00,028.1,026.9,000.0,036.4,029.8,19.6,0000.0,0010.27,0003.97,0003.24
2023-09-01 06:04:00,SystemResetWarning,0829.0,5.01,000.00,028.2,027.0,000.0,036.5,029.9,19.4,0000.0,0009.93,0003.94,0003.22
2023-09-01 06:05:00,SystemResetWarning,0829.0,5.00,000.00,028.2,027.2,000.0,036.5,029.9,19.5,0000.0,0009.81,0003.94,0003.21
2023-09-01 06:06:00,SystemResetWarning,0829.0,4.98,000.00,028.2,026.4,000.0,036.5,029.7,19.3,0000.0,0009.38,0003.91,0003.21
2023-09-01 06:07:00,SystemResetWarning,0829.0,5.00,000.00,028.1,024.6,000.0,036.4,029.2,19.4,0000.0,0009.03,0003.93,0003.21
2023-09-01 06:08:00,SystemResetWarning,0829.0,5.00,000.00,027.9,023.8,000.0,036.3,028.9,19.3,0000.0,0008.98,0003.92,0003.21
2023-09-01 06:09:00,SystemResetWarning,0829.0,5.01,000.00,027.8,024.0,000.0,036.3,028.9,19.3,0000.0,0008.86,0003.88,0003.20
2023-09-01 06:10:00,SystemResetWarning,0829.0,5.02,000.00,027.8,024.4,000.0,036.3,029.0,19.2,0000.0,0007.93,0003.88,0003.20
2023-09-01 06:11:00,SystemResetWarning,0828.9,5.00,000.00,027.8,024.8,000.0,036.3,029.1,19.2,0000.0,0008.22,0003.90,0003.20
2023-09-01 06:12:00,SystemResetWarning,0828.9,5.00,000.00,027.8,025.3,000.0,036.3,029.2,19.2,0000.0,0008.28,0003.89,0003.21
2023-09-01 06:13:00,SystemResetWarning,0828.9,5.00,000.00,027.8,025.6,000.0,036.3,029.3,19.1,0000.0,0008.77,0003.88,0003.22
2023-09-01 06:14:00,SystemResetWarning,0828.9,5.00,000.00,027.8,026.0,000.0,036.3,029.4,19.0,0000.0,0008.88,0003.87,0003.22
2023-09-01 06:15:00,SystemResetWarning,0829.0,5.01,000.00,027.9,026.2,000.0,036.3,029.5,18.9,0000.0,0008.99,0003.89,0003.22
2023-09-01 06:16:00,SystemResetWarning,0829.1,5.00,000.00,027.9,026.5,000.0,036.3,029.5,18.9,0000.0,0008.80,0003.84,0003.22
2023-09-01 06:17:00,SystemResetWarning,0829.1,5.00,000.00,027.9,026.7,000.0,036.3,029.6,19.0,0000.0,0008.80,0003.85,0003.22
2023-09-01 06:18:00,SystemResetWarning,0829.1,5.00,000.00,028.0,026.8,000.0,036.3,029.7,19.0,0000.0,0008.65,0003.81,0003.22
2023-09-01 06:19:00,SystemResetWarning,0829.1,5.00,000.00,028.1,027.0,000.0,036.4,029.8,18.9,0000.0,0008.61,0003.82,0003.23
2023-09-01 06:20:00,SystemResetWarning,0829.0,5.00,000.00,028.1,027.1,000.0,036.4,029.8,18.8,0000.0,0008.68,0003.85,0003.22
2023-09-01 06:21:00,SystemResetWarning,0829.1,5.00,000.00,028.1,027.2,000.0,036.4,029.9,18.5,0000.0,0008.78,0003.84,0003.22
2023-09-01 06:22:00,SystemResetWarning,0829.1,5.01,000.00,028.2,027.3,000.0,036.4,029.9,18.3,0000.0,0008.60,0003.82,0003.21
2023-09-01 06:23:00,SystemResetWarning,0829.0,5.00,000.00,028.2,026.6,000.0,036.4,029.8,18.2,0000.0,0008.32,0003.80,0003.20
2023-09-01 06:24:00,SystemResetWarning,0829.0,5.00,000.00,028.1,025.0,000.0,036.4,029.3,18.1,0000.0,0007.95,0003.82,0003.19
2023-09-01 06:25:00,SystemResetWarning,0828.9,5.01,000.00,028.0,024.8,000.0,036.3,029.2,18.2,0000.0,0008.74,0003.83,0003.20
2023-09-01 06:26:00,SystemResetWarning,0829.0,5.01,000.00,027.9,024.9,000.0,036.3,029.2,18.3,0000.0,0008.54,0003.81,0003.20
2023-09-01 06:27:00,SystemResetWarning,0828.9,5.00,000.00,027.9,025.3,000.0,036.3,029.3,18.3,0000.0,0008.76,0003.83,0003.20
2023-09-01 06:28:00,SystemResetWarning,0828.9,5.00,000.00,027.9,025.6,000.0,036.3,029.4,18.2,0000.0,0009.42,0003.83,0003.20
2023-09-01 06:29:00,SystemResetWarning,0828.9,5.01,000.00,027.9,026.0,000.0,036.3,029.5,18.1,0000.0,0009.87,0003.86,0003.21
2023-09-01 06:30:00,SystemResetWarning,0828.9,5.00,000.00,028.0,026.3,000.0,036.4,029.6,18.0,0000.0,0010.65,0003.87,0003.22
2023-09-01 06:31:00,SystemResetWarning,0828.9,5.00,000.00,028.0,026.5,000.0,036.4,029.7,17.9,0000.0,0010.68,0003.88,0003.22
2023-09-01 06:32:00,SystemResetWarning,0828.9,5.00,000.00,028.1,026.7,000.0,036.4,029.7,17.8,0000.0,0010.65,0003.89,0003.22
2023-09-01 06:33:00,SystemResetWarning,0828.9,5.00,000.00,028.1,026.9,000.0,036.4,029.8,17.7,0000.0,0010.54,0003.92,0003.23
2023-09-01 06:34:00,SystemResetWarning,0829.0,5.00,000.00,028.1,027.0,000.0,036.5,029.9,17.8,0000.0,0011.00,0003.96,0003.24
2023-09-01 06:35:00,SystemResetWarning,0829.0,5.00,000.00,028.2,027.2,000.0,036.5,029.9,17.8,0000.0,0011.36,0003.96,0003.24
2023-09-01 06:36:00,SystemResetWarning,0829.0,4.99,000.00,028.2,027.0,000.0,036.5,029.9,17.8,0000.0,0010.88,0003.93,0003.23
2023-09-01 06:37:00,SystemResetWarning,0829.0,5.00,000.00,028.2,025.5,000.0,036.4,029.5,18.0,0000.0,0011.14,0003.94,0003.23
2023-09-01 06:38:00,SystemResetWarning,0829.0,5.01,000.00,028.1,024.8,000.0,036.3,029.4,18.2,0000.0,0011.00,0003.91,0003.22
2023-09-01 06:39:00,SystemResetWarning,0828.9,5.01,000.00,028.0,024.9,000.0,036.3,029.2,18.4,0000.0,0010.45,0003.89,0003.21
2023-09-01 06:40:00,SystemResetWarning,0828.9,5.01,000.00,027.9,025.2,000.0,036.4,029.3,18.5,0000.0,0009.95,0003.86,0003.20
2023-09-01 06:41:00,SystemResetWarning,0829.0,5.00,000.00,027.9,025.5,000.0,036.4,029.4,18.6,0000.0,0009.25,0003.85,0003.18
2023-09-01 06:42:00,SystemResetWarning,0828.9,5.00,000.00,028.0,025.9,000.0,036.4,029.5,18.6,0000.0,0009.14,0003.80,0003.17
2023-09-01 06:43:00,SystemResetWarning,0829.0,5.00,000.00,028.0,026.2,000.0,036.4,029.6,18.5,0000.0,0008.97,0003.76,0003.16
2023-09-01 06:44:00,SystemResetWarning,0829.0,5.00,000.00,028.0,026.4,000.0,036.4,029.7,18.4,0000.0,0008.86,0003.73,0003.16
2023-09-01 06:45:00,SystemResetWarning,0828.9,4.99,000.00,028.1,026.7,000.0,036.4,029.7,18.4,0000.0,0008.44,0003.66,0003.13
2023-09-01 06:46:00,SystemResetWarning,0828.9,5.00,000.00,028.1,026.9,000.0,036.5,029.8,18.3,0000.0,0008.17,0003.66,0003.12
2023-09-01 06:47:00,SystemResetWarning,0829.0,5.00,000.00,028.2,027.0,000.0,036.5,029.9,18.2,0000.0,0007.57,0003.65,0003.10
2023-09-01 06:48:00,SystemResetWarning,0829.0,5.00,000.00,028.2,027.1,000.0,036.5,029.9,18.2,0000.0,0006.89,0003.62,0003.08
2023-09-01 06:49:00,SystemResetWarning,0828.9,5.00,000.00,028.3,027.2,000.0,036.5,030.0,18.1,0000.0,0006.67,0003.61,0003.07
2023-09-01 06:50:00,SystemResetWarning,0829.0,4.97,000.00,028.3,026.0,000.0,036.5,029.6,17.9,0000.0,0006.56,0003.59,0003.05
2023-09-01 06:51:00,SystemResetWarning,0828.9,5.01,000.00,028.1,024.2,000.0,036.4,029.2,17.9,0000.0,0006.40,0003.56,0003.02
2023-09-01 06:52:00,SystemResetWarning,0828.9,5.01,000.00,028.0,023.9,000.0,036.3,029.1,18.1,0000.0,0006.08,0003.52,0003.00
2023-09-01 06:53:00,SystemResetWarning,0828.8,5.01,000.00,027.9,024.1,000.0,036.3,028.9,17.8,0000.0,0006.13,0003.52,0002.98
2023-09-01 06:54:00,SystemResetWarning,0828.9,5.01,000.00,027.8,024.5,000.0,036.3,029.0,17.7,0000.0,0007.21,0003.56,0002.98
2023-09-01 06:55:00,SystemResetWarning,0828.9,5.00,000.00,027.8,025.0,000.0,036.3,029.2,17.5,0000.0,0008.15,0003.58,0002.97
2023-09-01 06:56:00,SystemResetWarning,0829.0,5.00,000.00,027.8,025.4,000.0,036.3,029.3,17.5,0000.0,0008.32,0003.63,0002.97
2023-09-01 06:57:00,SystemResetWarning,0829.0,5.00,000.00,027.8,025.7,000.0,036.3,029.4,17.5,0000.0,0008.48,0003.64,0002.96
2023-09-01 06:58:00,SystemResetWarning,0829.0,5.00,000.00,027.9,026.0,000.0,036.3,029.5,17.3,0000.0,0008.29,0003.61,0002.95
2023-09-01 06:59:00,SystemResetWarning,0828.9,5.00,000.00,027.9,026.3,000.0,036.3,029.5,17.2,0000.0,0009.34,0003.63,0002.92
